RH
24 24 23 24 24 24 24 23 22 22 21 20 19 19 18 17 17 17 16 16 16 16 16 17 17 17 17 17 17 17 17 17 17 17 18 18 17 18 18 18 20 21
25 26 25 25 26 26 27 26 26 25 24 24 24 23 23 23 23 23 23 23 23 23 24 25 25 25 25 25 25 25 24 24 24 24 24 24 24 24 24 24 24 24
29 29 29 28 29 29 30 30 30 30 30 30 30 30 30 30 30 29 29 29 29 29 30 30 31 32 33 33 34 34 33 34 34 35 35 35 35 35 35 34 34 33
34 34 33 32 31 32 33 34 34 36 36 36 37 37 37 37 37 37 36 36 36 35 35 35 36 36 37 39 40 40 40 40 40 41 42 41 41 41 41 41 42 41
39 39 39 37 36 35 36 37 38 39 40 40 41 42 42 42 42 42 42 42 42 42 42 42 41 41 41 42 42 42 42 42 42 44 44 43 44 45 46 47 48 48
43 44 44 43 42 42 41 42 43 43 43 43 43 44 46 46 46 47 47 47 47 47 47 47 46 46 46 46 45 44 44 44 46 48 48 48 49 52 53 54 55 56
48 48 48 49 49 49 49 48 48 48 47 46 46 47 48 49 49 50 51 51 51 50 49 49 49 50 50 51 51 50 50 51 53 55 55 54 56 57 58 59 61 61
51 51 51 51 52 52 53 53 52 52 52 51 51 53 55 56 56 56 54 52 52 52 52 52 52 52 54 55 55 55 56 58 60 61 61 59 60 61 61 64 65 64
56 56 56 55 55 56 56 56 56 56 57 57 58 60 63 66 67 68 67 64 59 56 56 58 58 59 61 61 61 60 62 64 66 68 68 67 67 67 68 71 71 69
61 61 60 60 60 60 61 61 61 61 62 62 63 66 68 71 74 76 79 79 75 69 67 68 69 71 73 74 73 72 72 73 74 75 75 75 74 74 75 77 77 75
74 73 73 73 74 75 75 75 74 73 73 73 73 75 76 78 81 82 84 86 86 85 82 81 82 84 85 86 86 87 86 84 83 83 83 82 81 81 82 84 85 82
84 85 86 86 87 88 88 88 88 87 87 87 86 86 86 86 87 88 88 89 90 91 91 90 90 90 91 91 91 93 93 91 90 89 89 89 89 89 90 92 93 91
84 85 87 87 88 88 88 88 89 89 89 89 89 88 88 87 87 88 89 90 90 91 91 91 91 92 94 95 95 96 97 97 96 96 96 97 97 97 97 98 99 98
78 79 80 82 82 82 83 83 84 84 84 83 83 83 83 83 84 85 86 88 89 90 91 93 94 96 98 99 99 99 100 100 100 100 100 100 99 100 100 100 100 100
72 73 74 76 76 77 77 77 77 77 77 76 76 76 77 78 79 81 81 83 86 88 91 94 97 100 101 100 100 100 100 100 100 100 100 100 100 100 100 100 100 100
68 70 71 72 73 73 72 72 71 70 70 69 69 69 70 71 73 75 77 78 80 84 88 92 96 100 100 100 100 99 100 100 100 100 100 100 100 100 100 100 100 100
67 68 69 69 70 70 69 67 66 65 63 63 63 63 64 66 68 71 73 76 78 80 84 87 91 96 98 100 100 99 100 100 100 100 100 100 100 100 100 100 100 100
69 69 69 69 68 67 65 63 61 60 59 59 59 60 61 63 66 69 72 77 80 82 85 87 90 95 99 101 100 100 100 100 100 100 99 100 100 100 100 100 100 100
73 72 70 69 67 65 64 62 60 59 59 59 60 61 63 65 67 70 73 77 81 84 88 91 95 98 101 102 101 100 100 100 100 100 99 98 99 100 100 100 100 100
75 73 71 69 67 65 63 62 61 61 62 62 63 65 67 69 71 73 77 80 83 86 90 93 98 101 101 102 102 101 100 100 100 100 99 99 99 100 101 101 101 101
76 73 71 69 67 66 65 65 66 67 67 68 69 71 73 74 76 79 81 85 89 91 93 96 99 101 102 102 101 101 100 100 100 100 100 100 100 100 100 100 100 101
75 73 71 70 68 69 70 72 73 74 74 74 75 78 80 81 83 85 86 88 92 93 95 98 100 101 102 102 101 101 101 99 99 100 100 99 100 100 100 100 100 100
77 74 71 71 71 73 76 77 77 78 78 79 78 80 83 84 86 90 91 91 93 95 96 98 100 101 102 102 101 101 100 99 98 100 100 100 100 100 100 100 100 100
79 76 74 75 77 79 81 80 80 81 82 82 82 82 85 86 88 92 95 95 95 96 96 97 100 102 103 103 102 101 101 100 99 100 101 101 101 101 101 100 100 100
80 79 79 81 83 85 86 84 83 84 84 85 87 87 88 89 89 92 95 97 97 97 97 97 98 102 103 102 101 100 100 100 100 100 100 100 101 101 101 101 102 101
84 84 85 87 87 88 89 88 86 86 86 88 89 90 90 90 90 91 94 96 97 96 96 96 96 99 102 102 101 101 101 101 100 99 99 99 99 98 99 101 103 103
Wind_Speed
31 33 36 37 39 39 39 39 40 41 41 41 41 41 41 41 41 42 43 44 45 46 46 47 48 48 49 50 51 52 53 53 54 54 55 55 55 56 56 56 56 56
31 32 34 36 37 38 38 39 39 40 41 41 41 41 41 41 41 42 43 44 45 45 46 46 47 48 48 49 50 51 52 52 52 53 53 53 53 54 54 54 54 54
30 31 32 34 36 37 37 38 39 40 40 40 41 41 42 42 43 43 44 45 46 46 47 47 48 48 49 49 49 50 51 52 52 51 52 53 53 53 53 53 53 54
31 31 32 34 36 38 38 39 39 39 39 40 40 41 42 42 43 44 45 45 46 46 47 48 48 49 49 49 50 51 51 51 51 51 52 52 52 52 52 53 53 53
32 33 33 35 37 39 40 40 40 40 40 40 40 41 42 43 44 44 45 45 46 46 47 47 48 49 50 51 51 52 52 52 52 52 53 53 53 52 52 52 53 53
34 34 35 35 37 39 40 41 41 41 41 41 42 42 43 44 45 45 46 46 46 47 47 48 48 49 49 50 51 52 53 53 53 53 54 54 53 53 52 53 53 53
36 36 37 37 38 39 40 41 41 41 42 42 42 42 43 44 45 46 47 48 48 49 49 50 50 50 50 50 51 52 52 53 53 54 55 54 54 54 54 54 55 55
38 39 39 40 40 40 41 42 42 42 42 43 44 44 45 46 47 48 50 50 51 52 52 52 52 52 52 52 52 52 52 53 53 54 55 55 55 56 56 56 57 57
40 41 41 42 42 43 44 44 45 45 46 46 47 48 49 50 52 53 54 55 55 55 55 55 55 55 55 55 56 56 55 55 55 56 57 57 57 58 58 58 59 59
42 43 44 45 46 47 48 49 49 50 50 51 52 53 55 56 57 58 59 59 59 58 58 58 58 58 58 58 58 58 58 58 59 59 59 60 60 60 60 60 61 62
47 48 48 50 50 51 52 53 53 54 55 56 57 58 59 60 61 62 62 61 60 60 60 60 60 60 60 60 60 60 61 61 61 61 62 62 62 62 62 62 63 63
51 51 52 53 54 54 55 56 57 58 59 60 61 61 62 62 62 62 61 60 60 61 61 61 61 61 62 62 62 63 63 63 63 63 63 63 63 63 62 62 63 62
51 52 52 53 53 54 55 56 56 57 58 59 59 59 60 60 59 59 59 59 60 60 60 61 61 62 62 63 63 64 64 64 64 64 64 64 63 62 61 61 60 60
48 48 49 49 50 50 51 51 52 52 53 53 54 55 55 55 56 56 56 57 57 58 58 59 59 60 60 61 61 62 63 63 63 63 62 61 61 60 59 58 58 58
44 44 44 44 45 45 46 46 46 47 48 49 49 50 51 51 52 52 53 53 54 54 54 55 55 56 56 57 58 58 59 59 59 59 58 58 57 57 56 56 56 56
43 42 42 42 42 42 42 43 43 44 44 45 46 46 47 48 48 49 50 51 51 52 52 52 53 53 53 54 55 55 56 56 56 56 56 56 56 55 55 55 55 55
42 42 41 41 41 41 42 42 43 43 44 44 45 45 46 46 47 48 48 49 49 50 50 51 51 51 52 52 53 53 54 55 55 55 55 55 55 55 55 54 54 54
41 41 41 41 42 42 42 43 43 44 44 44 45 45 45 46 46 47 47 48 48 49 49 50 50 50 50 50 51 51 52 53 53 53 53 53 54 54 54 54 54 54
41 41 42 42 42 42 43 43 43 44 44 44 44 44 44 45 45 46 46 47 47 47 48 48 48 48 48 48 49 49 49 50 50 51 51 52 52 52 53 53 53 53
41 42 42 42 42 43 43 43 43 43 44 43 44 44 44 44 44 44 45 45 46 46 46 47 47 47 47 47 48 48 48 48 49 49 49 50 50 51 51 52 52 53
42 42 42 42 42 42 42 42 42 42 42 42 42 42 42 43 43 43 43 44 44 44 45 45 46 46 46 47 47 47 48 48 48 48 48 48 49 50 50 50 51 51
43 43 43 43 42 42 41 41 40 40 40 40 40 40 40 41 41 41 42 42 42 43 43 44 44 45 45 46 46 46 47 47 46 46 47 47 47 47 48 49 50 50
43 43 43 42 42 41 40 40 39 39 39 39 39 39 39 39 39 39 40 40 41 41 41 42 42 43 43 44 44 45 46 45 45 45 45 45 45 45 45 46 47 48
42 42 42 41 40 39 39 38 38 38 38 37 38 38 38 38 38 37 38 38 39 39 40 40 40 40 41 41 42 42 43 43 43 43 43 43 43 43 43 43 44 44
41 41 40 39 39 38 37 37 37 37 36 36 36 36 36 36 36 35 35 36 36 37 37 37 38 38 38 38 39 39 39 40 40 40 40 40 40 40 41 41 42 42
40 39 39 38 37 36 36 36 36 35 35 34 34 34 34 34 34 34 34 34 35 35 36 36 36 36 36 36 37 37 37 38 38 38 38 38 38 39 39 39 39 40
Wind_Direction
273 272 272 270 269 268 267 266 265 264 263 262 262 261 261 261 261 260 260 260 260 261 261 261 261 261 261 261 261 262 262 262 262 262 262 262 262 262 263 263 263 263
273 274 274 273 272 272 270 269 268 268 267 267 266 266 265 264 263 262 262 262 262 262 262 263 263 263 263 263 263 263 263 263 263 263 263 263 264 263 263 264 264 264
270 271 272 273 274 274 273 273 272 272 272 271 271 271 270 269 268 266 266 265 264 264 263 263 263 263 263 263 263 263 263 264 264 264 264 264 264 265 265 265 265 265
269 269 270 271 272 272 272 272 273 273 273 273 273 273 272 272 271 271 270 270 269 268 267 266 265 264 264 263 263 263 264 264 265 265 265 265 265 265 266 266 266 266
270 270 270 270 270 271 271 272 272 272 272 273 273 274 274 273 273 273 272 271 271 270 270 269 269 268 267 266 265 265 265 266 266 266 266 266 266 266 266 266 266 266
269 269 270 270 271 271 272 272 273 273 274 274 275 275 276 276 275 275 274 273 272 271 270 270 270 270 270 269 269 268 268 268 268 267 267 267 267 268 268 268 268 268
269 269 270 271 272 272 273 274 274 275 276 277 277 278 279 279 279 278 277 276 275 274 273 272 271 270 270 270 269 269 269 269 268 268 268 268 268 268 269 269 269 269
269 270 271 272 273 274 275 276 276 276 277 278 279 280 281 281 281 281 280 278 277 276 276 275 274 273 272 271 270 269 268 268 268 268 268 268 268 269 270 270 270 270
269 270 271 272 273 274 275 276 276 276 276 277 278 279 280 281 281 282 281 280 278 277 276 276 276 275 274 274 273 271 271 270 270 270 270 270 270 271 271 271 271 271
271 272 272 273 274 275 276 276 276 276 276 276 277 278 279 279 280 281 281 280 278 276 276 275 275 275 274 274 274 273 273 272 272 272 272 272 272 272 272 272 271 271
275 275 275 275 275 275 276 275 275 275 275 275 276 276 277 277 278 280 280 279 277 276 275 275 275 275 274 274 274 274 274 273 273 273 273 272 272 272 271 271 270 270
279 278 277 277 276 276 276 275 275 275 275 275 275 276 276 277 278 278 278 277 276 276 275 274 274 274 274 274 274 274 274 273 273 273 273 272 272 271 271 270 270 269
284 283 281 280 280 279 278 278 277 277 277 277 277 277 277 277 277 277 276 275 275 274 274 273 273 272 272 272 272 272 272 272 272 272 272 272 272 271 271 270 270 269
287 286 285 284 284 283 283 282 282 281 281 281 281 280 280 279 278 277 276 275 274 274 273 273 272 272 271 271 271 271 271 271 272 272 272 272 272 272 271 271 270 270
291 290 289 288 288 288 287 287 287 286 286 285 285 284 283 282 282 281 279 278 277 276 276 275 275 274 273 273 272 272 271 272 272 272 272 272 273 272 272 271 271 271
293 292 291 291 290 290 289 289 288 288 287 287 287 286 285 285 284 283 283 282 281 280 279 278 277 277 276 275 274 273 273 272 272 272 272 272 272 272 272 271 271 271
292 292 291 290 290 290 289 289 289 288 288 287 287 286 285 284 284 283 282 282 281 280 280 279 278 277 276 275 274 274 273 273 272 272 271 271 271 270 270 270 269 269
292 291 290 290 289 289 289 289 289 289 288 288 287 286 285 284 283 282 281 280 279 279 278 278 277 276 276 275 274 274 273 273 273 272 271 270 270 269 269 268 267 267
292 292 291 291 291 291 291 291 291 291 291 290 289 288 287 286 285 284 282 281 280 279 279 278 278 277 276 276 275 275 274 274 273 273 272 271 270 269 269 268 267 266
294 293 293 293 293 293 293 294 294 293 293 293 292 291 290 289 288 287 285 284 283 282 281 280 279 278 277 277 276 276 275 274 274 273 273 272 272 271 270 269 268 267
298 297 296 296 296 296 296 295 295 295 295 294 293 293 292 291 290 288 287 286 285 284 282 281 280 279 278 277 277 276 275 274 274 274 273 273 272 272 271 270 269 268
301 301 300 300 299 299 298 298 297 297 296 296 295 294 293 292 291 290 288 287 286 285 283 282 281 280 279 278 277 276 276 275 275 274 273 273 272 272 272 271 271 270
303 302 302 301 301 300 299 299 298 298 297 297 296 295 295 294 293 291 290 289 287 286 285 284 283 282 280 279 278 277 277 276 275 274 273 273 272 271 271 271 271 271
304 303 303 302 301 301 300 300 300 299 299 298 298 297 295 294 293 292 291 290 289 288 287 286 284 283 282 281 280 279 279 278 277 276 275 274 273 272 271 270 269 269
304 304 303 302 302 302 302 302 301 301 301 300 299 298 297 297 296 295 294 292 291 290 289 288 287 286 285 284 283 283 282 281 280 279 278 277 275 273 272 271 270 269
305 305 304 304 303 303 304 303 303 302 302 302 301 301 300 299 298 297 296 295 294 292 291 290 289 288 287 286 286 286 285 284 283 281 280 279 277 275 274 272 271 270